{"data":{"norad_id":59513,"epoch":"2026-05-25T05:08:29.280192Z","epoch_age_seconds":56150,"freshness":"FRESH","line1":"1 59513U 24073C   26145.21422778  .00002984  00000+0  11795-3 0  9998","line2":"2 59513  43.0037 205.5775 0001489 291.1676  68.9017 15.27575029118337","mean_motion":15.27575029,"eccentricity":0.0001489,"inclination_deg":43.0037,"raan_deg":205.5775,"arg_perigee_deg":291.1676,"mean_anomaly_deg":68.9017,"bstar":0.00011795,"rev_number":11833,"period_min":94.267055474366,"perigee_km":482.04234821625,"apogee_km":484.0856138684,"semimajor_km":6861.2009810423,"source":"CELESTRAK","updated_at":"2026-05-25T13:38:18.974264Z"}}